Location: Newark
(45.2500°N, 7.5833°E)
Time: 11:18:54
(UTC+00:00)

A-11 Canister half - Pass Details

Date: 30 January 2020
Orbit: 1524 x 1684 km, 47.3° (Epoch: 22 February)

Event Time Altitude Azimuth Distance (km) Brightness Sun altitude
Rises 20:39:12 0° 289° (WNW) 4,713 12.4 -43.0°
Reaches altitude 10° 20:42:13 10° 288° (WNW) 3,744 11.6 -43.5°
Enters shadow 20:49:00 53° 275° (W) 1,891 9.5 -44.6°
Maximum altitude 20:51:42 76° 206° (SSW) 1,634 - -45.0°
Drops below altitude 10° 21:01:30 10° 122° (ESE) 3,861 - -46.6°
Sets 21:04:39 0° 121° (ESE) 4,866 - -47.1°
